Wind_Speed
62 61 66 73 74 78 76 59 52 52 48 49 50 51 55 53 56 64 68 72 69 64 63 57 56 73 83 71 78 77 70 59 53 56 54 57 55 51 49 50 52 48 45
60 64 67 67 73 76 61 48 45 43 41 38 41 43 44 46 49 58 57 65 73 67 63 59 54 53 75 81 84 75 76 70 55 51 50 55 47 47 51 56 55 53 48
60 62 62 65 72 67 51 43 44 46 43 44 42 41 38 34 42 53 48 57 64 68 63 61 56 51 55 75 81 77 75 62 48 53 43 38 46 42 47 52 52 51 47
57 58 58 63 62 51 44 44 44 45 44 44 41 39 33 31 32 36 46 46 50 57 62 62 56 49 44 56 74 72 75 75 64 52 48 44 46 43 46 52 55 52 52
53 51 56 61 55 47 49 51 45 36 30 27 29 30 28 27 30 35 41 43 42 44 51 59 57 47 48 43 57 73 77 71 73 57 48 49 47 51 49 53 56 57 58
49 45 53 59 52 45 45 44 35 29 22 20 19 22 25 25 24 33 34 34 34 40 44 54 56 52 47 46 42 66 72 64 64 73 48 45 44 42 50 53 51 45 50
44 41 51 53 44 39 40 36 27 15 17 13 11 18 24 24 25 26 30 33 36 36 38 48 50 55 48 45 44 46 55 64 61 52 51 42 43 44 46 44 38 43 45
40 38 46 51 39 30 32 28 24 20 16 12 13 17 18 20 25 27 31 34 37 37 37 44 51 52 48 40 43 41 50 60 61 60 59 37 37 38 35 37 41 47 41
38 38 41 45 35 23 26 23 28 27 22 13 9 4 6 8 15 23 28 31 32 36 37 44 47 45 44 36 38 39 49 53 59 62 57 47 44 39 37 37 36 38 42
35 35 33 38 33 20 20 18 23 29 28 18 13 10 10 13 20 22 22 23 27 32 35 39 39 41 36 36 36 36 42 42 36 49 54 46 37 38 37 39 36 34 37
30 31 26 31 31 19 14 15 14 21 25 25 20 18 18 20 22 26 29 30 31 33 35 34 34 32 36 34 31 36 37 40 39 37 38 34 39 38 36 37 37 40 40
26 26 21 24 29 23 17 9 12 13 17 20 21 16 16 19 21 23 24 26 25 23 24 25 23 25 30 28 40 38 36 38 42 39 36 37 37 38 36 35 35 37 39
22 21 19 20 20 26 23 6 6 8 14 18 12 17 14 14 15 18 15 17 17 12 18 26 20 28 29 20 26 22 30 36 39 40 33 34 33 31 32 33 35 35 34
20 15 15 19 21 19 19 20 9 9 14 18 20 13 13 12 14 15 12 13 18 15 19 37 33 24 18 15 19 24 30 32 36 34 29 24 25 28 30 28 29 31 33
13 12 13 15 18 20 21 20 17 14 12 10 11 12 15 13 15 12 22 22 25 31 33 31 28 25 22 19 19 22 25 26 20 19 23 22 20 21 24 25 28 31 37
12 10 15 16 20 20 22 25 24 24 25 19 17 15 13 11 17 28 21 18 19 20 24 26 26 21 17 15 13 12 13 15 14 12 15 16 17 21 25 29 34 39 44
11 10 7 8 14 19 25 27 24 25 29 29 31 33 32 31 31 30 29 30 31 30 27 22 20 18 16 12 7 3 4 7 8 10 14 18 22 27 33 39 44 48 52
10 5 2 6 10 13 14 17 19 20 24 25 28 30 28 28 28 28 26 23 22 20 18 16 13 10 7 3 2 5 7 7 13 17 22 27 31 35 40 45 50 56 62
10 8 3 1 4 7 11 12 13 14 15 17 18 18 18 17 17 16 17 15 15 13 9 7 5 3 2 2 2 6 11 16 21 24 29 34 39 44 48 52 57 63 67
13 10 5 2 8 11 12 12 12 13 14 14 14 13 12 12 11 11 10 10 9 8 7 6 4 2 2 7 12 16 19 22 27 31 36 40 45 49 54 57 63 67 71
17 12 7 7 9 9 9 9 9 8 8 9 10 10 11 11 11 11 9 7 5 3 1 2 5 8 12 15 18 21 25 29 33 37 41 45 49 53 57 62 67 71 77
20 17 12 11 12 9 10 12 12 11 10 9 11 12 12 11 10 8 6 4 4 6 8 10 13 16 18 21 24 27 30 33 37 41 45 49 54 58 62 66 72 77 82
24 22 17 15 13 10 7 7 9 12 13 11 9 9 11 13 13 11 8 7 8 11 13 16 18 21 23 26 28 31 34 37 41 46 49 54 57 62 67 72 78 82 86
26 25 22 19 16 12 9 5 2 4 7 9 10 9 10 12 14 15 14 13 14 15 18 20 23 25 27 30 33 36 39 42 46 50 54 58 63 67 72 78 81 85 89
28 27 26 23 20 16 12 8 5 3 3 5 7 8 11 13 15 15 16 17 17 17 19 22 25 28 31 34 36 39 43 46 50 54 58 63 67 71 76 80 84 87 91
30 28 27 26 24 20 16 13 11 10 9 9 11 13 14 16 18 19 20 22 23 24 25 26 28 31 34 36 39 43 46 50 53 57 61 65 70 73 77 81 85 88 91
Wind_Direction
312 308 308 312 311 312 311 304 300 288 283 276 273 272 279 260 248 240 237 235 235 235 231 233 237 231 223 220 230 237 249 247 244 240 239 241 244 239 248 256 253 260 260
313 316 316 315 318 318 310 304 302 298 282 277 276 281 280 261 243 235 234 234 231 234 232 229 235 237 228 223 230 234 242 247 240 237 239 237 241 244 250 251 255 258 259
316 320 318 323 327 320 309 300 299 296 283 275 277 275 283 265 240 228 225 228 230 233 231 228 231 236 235 227 226 231 237 240 234 234 230 257 245 244 245 246 253 256 265
319 322 323 332 328 321 313 307 308 295 284 275 271 265 271 264 237 225 222 222 224 228 228 224 226 231 238 235 228 227 232 230 239 248 245 252 245 244 248 245 248 254 263
323 323 335 337 326 319 314 312 305 293 293 284 273 254 259 262 238 222 219 220 222 227 227 224 220 227 233 240 236 225 231 232 237 242 240 242 247 245 251 247 249 250 259
326 330 341 342 332 333 332 329 318 300 288 291 269 247 251 252 237 217 211 213 219 228 227 221 218 223 231 237 244 228 232 229 232 240 250 250 248 253 250 251 250 257 260
329 337 345 345 344 349 350 351 356 349 315 301 270 252 250 245 231 222 212 214 220 226 221 219 214 218 227 235 242 239 229 225 224 240 239 246 251 256 251 245 252 257 260
334 338 342 353 349 358 357 358 3 358 342 320 292 273 261 240 227 219 212 211 213 218 218 208 210 214 221 235 238 243 224 220 223 233 238 247 251 248 240 249 255 259 261
337 338 344 353 356 358 7 11 14 1 348 342 325 245 198 204 202 204 204 205 206 210 204 205 206 212 219 236 235 239 220 220 229 232 238 252 242 244 241 250 260 260 259
339 343 350 359 358 6 21 27 22 21 30 41 50 68 89 122 136 140 151 162 174 186 194 198 202 211 221 230 236 236 214 213 223 237 238 250 244 244 250 253 260 261 266
339 346 357 4 9 9 24 30 35 35 49 48 65 74 104 118 128 141 152 162 171 177 186 196 204 217 223 233 215 192 192 206 222 246 242 244 246 249 252 258 267 270 276
339 348 358 9 19 18 29 43 40 54 55 63 61 76 102 126 139 151 160 163 169 178 190 195 198 219 221 209 185 183 192 203 219 230 240 241 244 249 256 261 267 272 275
333 344 3 7 19 26 35 68 52 34 36 34 68 85 93 130 136 145 157 166 167 177 180 187 187 159 157 176 179 186 201 213 224 240 238 243 247 254 261 267 271 275 292
333 348 6 21 31 33 32 44 44 360 28 46 45 96 106 112 119 139 158 179 182 190 184 167 156 133 148 171 183 202 211 216 221 233 244 248 256 263 267 279 298 296 291
343 7 14 27 43 57 59 54 48 36 32 20 86 91 92 98 92 112 125 128 140 150 150 159 152 142 150 165 181 198 211 219 228 244 256 260 274 296 295 290 293 297 301
3 34 39 53 55 57 64 72 70 70 70 74 73 82 78 97 128 144 148 130 138 144 136 134 139 150 159 168 186 212 230 245 250 273 293 296 293 289 292 297 302 306 309
321 333 30 49 62 64 67 72 70 72 74 78 83 86 92 95 99 108 111 112 115 118 121 127 133 141 151 162 180 220 282 287 288 287 295 302 302 303 308 312 312 311 310
283 272 3 56 61 66 63 63 63 66 70 71 69 73 79 87 92 95 97 107 106 102 102 99 93 88 92 107 219 255 272 285 291 297 305 309 309 309 310 312 314 315 314
242 228 228 51 58 71 72 69 67 66 64 65 68 73 78 81 85 90 97 96 91 96 101 108 116 124 128 146 279 298 302 306 310 312 312 313 313 313 313 311 311 311 311
218 226 239 170 114 96 82 74 69 68 69 69 71 73 77 82 82 82 84 88 91 94 100 106 109 100 347 326 322 321 319 316 314 313 313 314 313 311 310 310 310 311 313
208 205 204 181 144 105 80 72 71 66 63 64 68 70 68 60 53 52 52 55 58 60 20 338 323 318 314 314 317 317 315 313 313 312 311 309 309 310 310 312 314 314 314
211 202 205 183 160 135 103 85 73 69 64 58 58 55 52 48 41 35 29 9 327 307 292 291 301 308 310 309 308 308 309 309 310 310 308 308 310 312 314 314 315 315 314
211 208 206 199 186 174 149 116 92 77 68 59 52 43 33 27 20 11 348 320 299 290 291 294 297 298 299 301 301 303 305 307 307 307 308 311 314 314 314 315 315 314 313
213 213 212 206 200 197 191 176 139 74 69 66 57 47 28 13 4 354 340 324 307 298 292 289 288 289 292 296 298 301 305 305 306 307 310 313 314 314 314 314 314 314 315
212 217 217 213 209 210 214 220 229 259 318 354 357 360 3 360 357 348 340 330 317 306 298 294 293 293 294 296 299 303 303 304 306 309 311 312 313 314 315 315 316 316 316
212 216 217 215 216 220 224 234 246 259 279 299 309 318 326 335 339 341 339 333 325 315 306 301 298 295 294 296 297 299 302 304 306 308 310 312 314 316 317 318 318 319 319
Height
5559 5548 5536 5523 5508 5492 5473 5458 5446 5440 5435 5432 5432 5431 5425 5424 5430 5437 5450 5464 5479 5492 5506 5519 5526 5536 5550 5562 5571 5581 5590 5600 5607 5614 5620 5626 5631 5638 5643 5645 5648 5649 5651
5546 5534 5521 5506 5490 5470 5454 5443 5434 5427 5421 5418 5416 5414 5409 5406 5412 5421 5432 5446 5462 5477 5494 5506 5515 5522 5534 5548 5558 5570 5578 5589 5595 5602 5609 5614 5620 5626 5630 5634 5637 5638 5640
5534 5523 5508 5491 5472 5453 5441 5431 5422 5415 5408 5405 5403 5402 5399 5396 5399 5407 5417 5432 5447 5462 5478 5494 5505 5513 5523 5535 5547 5557 5566 5578 5584 5592 5599 5605 5609 5613 5618 5622 5625 5627 5629
5525 5513 5497 5478 5459 5441 5430 5419 5408 5399 5393 5390 5390 5391 5391 5390 5393 5399 5408 5421 5435 5449 5465 5480 5494 5506 5515 5522 5531 5542 5552 5565 5572 5582 5589 5594 5599 5603 5607 5610 5613 5616 5618
5518 5504 5488 5469 5449 5433 5420 5406 5393 5385 5380 5377 5377 5380 5383 5384 5387 5394 5403 5414 5426 5438 5452 5468 5485 5497 5506 5513 5518 5530 5540 5552 5565 5575 5581 5585 5589 5592 5596 5599 5602 5604 5606
5510 5497 5481 5463 5442 5428 5412 5395 5381 5374 5373 5371 5370 5373 5376 5378 5382 5389 5398 5409 5420 5432 5443 5457 5474 5488 5495 5505 5511 5519 5528 5544 5556 5566 5571 5577 5580 5582 5584 5587 5590 5593 5596
5504 5489 5477 5458 5438 5424 5411 5397 5384 5376 5372 5369 5368 5369 5370 5372 5377 5384 5393 5404 5416 5426 5436 5450 5466 5479 5487 5496 5503 5509 5519 5534 5547 5556 5566 5569 5570 5572 5572 5576 5580 5581 5583
5499 5485 5472 5455 5437 5424 5414 5403 5391 5382 5376 5371 5367 5365 5365 5367 5372 5379 5389 5400 5411 5421 5431 5445 5457 5470 5482 5490 5496 5502 5511 5525 5539 5548 5556 5559 5561 5562 5563 5567 5569 5571 5572
5494 5483 5470 5455 5437 5426 5416 5408 5397 5387 5377 5371 5366 5363 5363 5364 5367 5375 5385 5396 5407 5418 5429 5441 5453 5466 5477 5484 5491 5497 5505 5516 5529 5539 5547 5550 5553 5553 5555 5558 5560 5561 5561
5491 5481 5469 5456 5440 5429 5420 5413 5405 5394 5383 5376 5371 5368 5368 5368 5371 5377 5386 5396 5407 5418 5429 5440 5452 5463 5471 5477 5483 5490 5500 5514 5526 5535 5542 5543 5544 5548 5547 5548 5551 5551 5551
5489 5480 5469 5457 5444 5433 5426 5419 5411 5403 5394 5386 5382 5380 5378 5379 5383 5388 5394 5403 5412 5422 5432 5442 5451 5459 5466 5472 5477 5488 5500 5512 5519 5527 5533 5534 5536 5539 5539 5541 5541 5542 5540
5488 5480 5470 5459 5449 5437 5428 5422 5417 5410 5405 5398 5393 5391 5391 5392 5394 5397 5403 5409 5418 5426 5434 5442 5450 5458 5462 5467 5477 5487 5499 5508 5519 5523 5524 5526 5528 5530 5531 5532 5532 5531 5529
5488 5479 5471 5461 5453 5444 5433 5426 5422 5417 5413 5409 5405 5401 5401 5401 5403 5407 5411 5416 5421 5428 5434 5442 5450 5455 5460 5470 5478 5488 5498 5505 5511 5516 5518 5520 5522 5523 5524 5523 5521 5520 5517
5487 5479 5473 5464 5456 5449 5442 5433 5429 5421 5420 5415 5411 5409 5409 5410 5411 5413 5415 5419 5425 5430 5434 5442 5448 5456 5464 5472 5481 5489 5495 5501 5506 5510 5512 5514 5515 5515 5515 5514 5512 5511 5510
5487 5479 5474 5467 5461 5455 5448 5441 5435 5430 5427 5421 5421 5419 5418 5418 5419 5419 5422 5425 5429 5432 5437 5444 5451 5458 5467 5474 5481 5487 5492 5498 5502 5504 5506 5506 5506 5506 5507 5506 5503 5501 5498
5486 5481 5476 5471 5466 5461 5455 5449 5444 5439 5434 5430 5426 5423 5421 5421 5423 5423 5426 5430 5433 5438 5444 5449 5456 5464 5470 5476 5482 5487 5490 5494 5495 5497 5499 5498 5499 5500 5499 5496 5493 5487 5481
5486 5483 5479 5475 5470 5466 5462 5457 5453 5448 5444 5442 5438 5436 5434 5434 5434 5436 5439 5442 5445 5448 5453 5458 5463 5468 5473 5477 5481 5484 5487 5489 5489 5492 5494 5493 5492 5490 5487 5480 5476 5473 5468
5484 5482 5479 5475 5472 5469 5467 5463 5459 5456 5453 5450 5449 5447 5446 5446 5446 5447 5448 5450 5451 5455 5458 5462 5466 5469 5473 5477 5480 5482 5484 5486 5489 5489 5487 5486 5484 5480 5475 5469 5463 5456 5449
5480 5480 5478 5476 5474 5471 5468 5466 5463 5461 5459 5456 5454 5454 5453 5454 5455 5455 5455 5457 5459 5461 5464 5467 5469 5472 5474 5476 5479 5482 5482 5483 5482 5481 5478 5473 5469 5466 5462 5457 5452 5445 5437
5476 5477 5476 5475 5474 5472 5469 5468 5466 5464 5462 5461 5461 5461 5461 5461 5461 5461 5461 5462 5463 5464 5466 5468 5470 5472 5474 5475 5476 5476 5476 5475 5474 5471 5468 5465 5462 5458 5452 5447 5440 5431 5420
5471 5473 5475 5474 5474 5472 5470 5468 5467 5467 5467 5466 5465 5464 5463 5463 5462 5463 5463 5464 5465 5467 5468 5469 5470 5471 5472 5472 5472 5471 5470 5468 5466 5464 5461 5458 5453 5447 5440 5431 5421 5412 5402
5466 5468 5471 5473 5473 5472 5471 5469 5468 5467 5467 5467 5467 5466 5466 5466 5466 5466 5466 5466 5467 5467 5468 5468 5468 5468 5467 5466 5466 5464 5463 5462 5459 5456 5451 5446 5439 5432 5423 5414 5404 5394 5383
5461 5464 5466 5469 5470 5470 5470 5470 5469 5468 5467 5467 5466 5466 5466 5465 5465 5465 5465 5465 5465 5465 5464 5464 5464 5463 5462 5461 5460 5458 5456 5453 5449 5444 5438 5431 5424 5416 5407 5398 5387 5376 5362
5455 5458 5461 5464 5466 5467 5468 5468 5468 5468 5467 5467 5466 5466 5466 5465 5464 5464 5463 5463 5462 5461 5461 5461 5460 5459 5458 5455 5453 5449 5445 5441 5436 5430 5424 5417 5410 5401 5392 5381 5368 5355 5342
5447 5452 5456 5459 5461 5463 5464 5465 5466 5465 5466 5465 5465 5464 5464 5464 5463 5463 5462 5461 5460 5458 5456 5455 5453 5451 5449 5446 5442 5439 5434 5429 5423 5418 5412 5405 5396 5387 5376 5363 5350 5335 5321
5440 5445 5449 5452 5456 5458 5459 5461 5461 5462 5462 5461 5462 5461 5460 5459 5459 5458 5456 5454 5453 5451 5449 5447 5445 5442 5439 5436 5433 5428 5423 5417 5412 5407 5399 5391 5382 5371 5358 5344 5331 5316 5300